User: anonymous   Login
Location: Mason Neck State Park
(38.6428°N, 77.1981°W)
Time: 14:56:38
(UTC-04:00)
Language:

Cosmos 1400 Rocket - Orbit

View from above orbital plane
View from above orbital plane
View from above satellite
View from above satellite

Ground track
Ground track

The orbit data is extracted from the following two-line orbital elements,

1 13403U 82079B   14303.11746195  .00004114  00000-0  29204-3 0  7068
2 13403 081.1699 288.7413 0035762 199.4947 160.4910 15.04010113752096
Epoch (UTC): 30 October 2014 02:49:08
Eccentricity: 0.0035762
inclination: 81.1699°
perigee height: 530 km
apogee height: 579 km
right ascension of ascending node: 288.7413°
argument of perigee: 199.4947°
revolutions per day: 15.04010113
mean anomaly at epoch: 160.4910°
orbit number at epoch: 75209

The dashed part of the orbit path shows where the satellite is in the earth's shadow,  

DLR